Preview of NWS' New Version of Forecast
This preview is not operational and should not be used for support decisions.

Regional Weather Roundup (RWR)

Issued by National Weather Service (NWS)

                            
000
ASUS44 KMEG 260410
RWRTN 
TENNESSEE HOURLY STATE WEATHER ROUNDUP
NATIONAL WEATHER SERVICE MEMPHIS TN
1100 PM CDT SUN AUG 25 2019

TNZ002-004-019-021-049-052-054-088>092-260500-
WEST TENNESSEE
  
CITY           SKY/WX    TMP DP  RH WIND       PRES   REMARKS
MEMPHIS INTL   MOCLDY    75  73  93 SE8       29.89R                  
NWS MEMPHIS      N/A     75 N/A N/A MISG        N/A                   
JACKSON        LGT RAIN  72  72 100 VRB3      29.93F                  
DYERSBURG      RAIN      72  72 100 SE7       29.91F                  
SOMERVILLE     CLOUDY    73  72  94 VRB5G12   29.90S                  
COVINGTON      CLOUDY    73  73 100 SE8       29.90S                  
UNION CITY       N/A     72  72 100 S10G18    29.90F                  
BOLIVAR        CLOUDY    72  72 100 SE7       29.92S                  
PARIS          CLOUDY    72  70  94 S14G21    29.92F                  
HUNTINGDON     CLOUDY    73  72  94 SE7       29.92F                  
LEXINGTON      CLOUDY    72  72 100 CALM      29.94F                  
SELMER         CLOUDY    72  70  94 SE8       29.94S                  
SAVANNAH       FOG       72  72 100 S5G13     29.94S VSB 1            
$$

TNZ008-025-027-028-033-062-065-066-260500-
NORTH MIDDLE TENNESSEE
  
CITY           SKY/WX    TMP DP  RH WIND       PRES   REMARKS
NASHVILLE      CLOUDY    73  70  90 S8        29.99S                  
DICKSON        CLOUDY    72  70  94 S13G20    29.96S                  
PORTLAND       CLOUDY    72  70  94 S9        29.98S                  
CLARKSVILLE    LGT RAIN  73  72  96 SE5       29.95S                  
LEBANON        CLOUDY    72  70  94 SE3       29.98S                  
SMYRNA         LGT RAIN  72  71  97 SE5       30.00S                  
MURFREESBORO   CLOUDY    73  68  83 S8        29.98S                  
COOKEVILLE     CLOUDY    73  66  78 S8        30.02F                  
LIVINGSTON     CLOUDY    72  68  88 S5        30.03S                  
GALLATIN       CLOUDY    72  72 100 SE5       30.02S                  
CROSSVILLE     CLOUDY    69  64  84 VRB5      30.08S                  
ROCKWOOD       CLOUDY    70  68  94 S5        30.07S                  
$$

TNZ061-075-076-078-094-096-097-260500-
SOUTH MIDDLE TENNESSEE
  
CITY           SKY/WX    TMP DP  RH WIND       PRES   REMARKS
LAWRENCEBURG   CLOUDY    72  70  94 SE10      29.99F                  
LEWISBURG      CLOUDY    72  70  94 SE6       29.99S                  
FAYETTEVILLE   CLOUDY    70  70 100 S9        30.01S                  
TULLAHOMA      CLOUDY    72  68  88 SE8G14    30.01S                  
WINCHESTER     CLOUDY    72  66  83 SE13      30.03R HAZE             
MCMINNVILLE    CLOUDY    72  66  83 VRB5      30.03S                  
COLUMBIA       CLOUDY    72  72 100 CALM      29.97S                  
SHELBYVILLE    CLOUDY    72  70  94 S6        30.01R                  
$$

TNZ017-018-042-046-047-260500-
NORTHEAST TENNESSEE
  
CITY           SKY/WX    TMP DP  RH WIND       PRES   REMARKS
TRI CITIES     CLOUDY    70  57  63 E9        30.12S                  
ELIZABETHTON   MOCLDY    70  57  64 VRB5      30.13S                  
GREENEVILLE    CLEAR     64  63  94 CALM      30.11R                  
$$

TNZ012-013-036-069-073-074-260500-
CENTRAL EAST TENNESSEE
  
CITY           SKY/WX    TMP DP  RH WIND       PRES   REMARKS
KNOXVILLE      CLOUDY    71  69  93 SE3       30.04F                  
OAK RIDGE      CLOUDY    73  67  81 CALM      30.06S                  
DOWNTOWN KNOXV CLOUDY    72  72 100 CALM      30.05S                  
GATLINBURG     CLOUDY    70  70 100 CALM      30.05F                  
MORRISTOWN     CLOUDY    70  61  73 E6        30.07S                  
JACKSBORO      CLOUDY    70  70 100 CALM      30.09S                  
$$

TNZ083-085-099-260500-
SOUTHEAST TENNESSEE
  
CITY           SKY/WX    TMP DP  RH WIND       PRES   REMARKS
CHATTANOOGA    CLOUDY    74  65  73 S5        30.06R                  
DAYTON         CLOUDY    72  68  88 CALM      30.04S                  
$$

SKY/WX REPORTED AS FAIR MEANS FEW OR NO CLOUDS BELOW
12 THOUSAND FEET.